Main page
METAR-TAF:

METAR-TAF

Airports :

Noshahr, Iran

Noshahr Airport

latitude: 36-39-48N, longitude: 051-27-53E, elevation: 0 m

Current weather observation

The report was made 16 minutes ago, at 17:00 UTC
Wind 4 kt from the South
Temperature 22°C
Humidity 88%
Pressure 1013 hPa
Visibility 10 km or more
Scattered clouds at a height of 2700 ft
Broken clouds at a height of 9000 ft

METAR: OINN 231700Z 18004KT 9999 SCT027 BKN090 22/20 Q1013

Time: 21:46 (17:16 UTC)


TAF: missing

Weather observations and forecasts of more than 4000 airports (METAR and TAF reports).

The available stations are represented by yellow and red dots on the map.

Hover mouse over dot to see the name of the station.

Then click to see weather observations and forecasts.

To change the map : click on the green buttons with a black cross to zoom in, on the green button with a dash to zoom out, or on the green arrows for adjacent maps.


METAR-TAF: